Location: Hamburg
(53.5500°N, 10.0000°E)
Time: 14:30:46
(UTC+02:00)

ISS - Visible Passes

Search period start: 30 May 2015 00:00
Search period end: 09 June 2015 00:00
Orbit: 399 x 404 km, 51.6° (Epoch: 30 May)

Date Brightness Start Highest point End Pass type
(mag) Time Alt. Az. Time Alt. Az. Time Alt. Az.
30 May -3.1 01:12:42 22° SW 01:14:26 46° SSE 01:17:35 10° E visible
30 May -3.4 02:47:26 10° W 02:50:40 61° S 02:53:54 10° ESE visible
30 May -1.2 22:45:47 11° SE 22:45:47 11° SE 22:46:23 10° SE visible
31 May -2.8 00:18:16 10° SW 00:21:17 35° SSE 00:24:19 10° E visible
31 May -3.4 01:54:13 10° W 01:57:27 63° S 02:00:41 10° E visible
31 May -3.0 03:30:33 10° W 03:33:40 42° SSW 03:36:46 10° SE visible
31 May -2.3 23:25:25 10° SSW 23:28:09 26° SSE 23:30:56 10° E visible
01 Jun -3.4 01:01:01 10° WSW 01:04:13 58° S 01:07:27 10° E visible
01 Jun -3.3 02:37:17 10° W 02:40:28 52° SSW 02:43:40 10° ESE visible
01 Jun -1.8 22:32:48 10° SSW 22:35:05 18° SSE 22:37:24 10° ESE visible
02 Jun -3.2 00:07:52 10° WSW 00:11:01 48° SSE 00:14:11 10° E visible
02 Jun -3.4 01:44:02 10° W 01:47:15 60° S 01:50:29 10° ESE visible
02 Jun -2.5 03:20:28 10° W 03:23:22 29° SSW 03:26:15 10° SE visible
02 Jun -2.9 23:14:47 10° SW 23:17:49 38° SSE 23:20:52 10° E visible
03 Jun -3.4 00:50:47 10° W 00:54:00 63° S 00:57:15 10° E visible
03 Jun -2.9 02:27:07 10° W 02:30:13 39° SSW 02:33:16 10° SE visible
03 Jun -1.4 04:04:27 10° WSW 04:06:01 13° SW 04:07:31 10° S visible
03 Jun -3.4 23:57:32 10° WSW 00:00:45 59° S 00:03:59 10° E visible
04 Jun -3.2 01:33:49 10° W 01:36:59 50° SSW 01:40:10 10° ESE visible
04 Jun -1.9 03:10:32 10° W 03:12:57 19° SSW 03:15:20 10° SSE visible
04 Jun -3.2 23:04:20 10° WSW 23:07:30 51° SSE 23:10:41 10° E visible
05 Jun -3.4 00:40:31 10° W 00:43:44 59° S 00:46:58 10° ESE visible
05 Jun -2.4 02:17:00 10° W 02:19:49 27° SSW 02:20:44 23° S visible
05 Jun -3.4 23:47:14 10° W 23:50:28 63° S 23:53:42 10° E visible
06 Jun -2.8 01:23:36 10° W 01:26:39 37° SSW 01:27:53 26° SSE visible
06 Jun -3.3 22:53:58 10° WSW 22:57:11 61° S 23:00:25 10° E visible
07 Jun -3.1 00:30:15 10° W 00:33:25 47° SSW 00:35:39 17° SE visible
07 Jun -1.3 02:07:04 10° WSW 02:08:11 15° WSW 02:08:11 15° WSW visible
07 Jun -3.3 23:36:56 10° W 23:40:09 57° S 23:43:21 10° ESE visible
08 Jun -2.2 01:13:27 10° W 01:16:12 25° SSW 01:16:12 25° SSW visible
08 Jun -3.3 22:43:37 10° W 22:46:50 62° S 22:50:04 10° ESE visible
